sat.trackr.live / text

‹ back to catalog

YIJIAN

NORAD 41899 · 2016-081B

PAYLOAD ACTIVE UNKNOWN

§ Identity

Operator
Country
PRC
Launch date
2016-12-21
Launch site
JSC
Launch vehicle
Mass (kg)
RCS (m²)
0.40

External: N2YO · Heavens-Above · Gunter

§ Orbital elements

Epoch: 2026-05-24T23:26:58.994880Z

Period
98.58 min
Inclination
98.5374°
Eccentricity
0.0021442
Mean motion
14.60731393 rev/d
Perigee alt
675.7 km
Apogee alt
706.0 km
Semi-major
7,069.0 km
B*
1.0627e-4
RAAN
142.1582°
Arg perigee
24.1464°
Mean anomaly
336.0735°
Rev number
50,120

§ Raw data

YIJIAN1 41899U 16081B   26144.97707170  .00000469  00000+0  10627-3 0  99992 41899  98.5374 142.1582 0021442  24.1464 336.0735 14.60731393501208

JSON: /api/v1/satellites/41899 · /tle

For live sub-satellite position, see the globe view (requires WebGL).

§ Visibility from observer

Set your observer location to see the next 7 days of passes ≥ 10°. The values pass through the URL so the page stays shareable.

No JS? Fill the form by hand. The geolocation button needs JavaScript.